Ontario International Airport
KONT : now visible

Airfield :











YOU CAN JOIN US ON...

 
LOGIN :

Register | Disclaimer

   EN    FR    IT 

 









Legend :    VFR   Marginal VFR   IFR   Intensive IFR   Very Intensive IFR
Visi :
Ceiling :
>= 8 km
>= 3000ft
5 to 8 km
1000 to 3000 ft
1500m to 5 km
500 to 1000 ft
800 to 1500m
200 to 500 ft
< 800m
< 200 ft
Symbols :   Thunderstorms  Fog  Heavy snow  Heavy precipitations  Wind > 20 kt






- Airport Elevation : 944 ft
- IATA code : ONT


KONT - Ontario International

CURRENT METAR :
  • 191353Z 00000KT 6SM BR FEW250 14/11 A2999 RMK AO2 SLP147 T01440111

EXPIRED METARs :
  • 191253Z 00000KT 8SM FEW010 15/12 A2999 RMK AO2 SLP142 T01500117
  • 191153Z 00000KT 8SM FEW010 16/12 A2997 RMK AO2 SLP136 T01560117 10178 20150 56010

TAF KONT
Valid from the 19 at 12:00 until the 20 at 18:00 UTC


191137Z 1912/2018 VRB04KT P6SM SKC
FM192100 26011KT P6SM SKC
FM200400 VRB04KT P6SM SKC
KZLA FIR / North America



MET'MAP, your aeronautical weather chart ! - Copyright ORBIFLY December 2007 - Disclaimer

ORBIFLY MET'MAP TEAM :

Programming & Development : Alexandra Zaïnal
Concept & original design : Baudouin d'Aumeries
Assistance for programming : Marc-Olivier Méhu
Technical & hardware support : Manuel Goepfert

Contact : metmap@orbifly.com




SOURCES & CREDITS :

   NOAA       Earth
Advisory